ONEWEB-0377 (49303 NORAD) Tracking and Keplerian Element Data

This shows tracking and keplerian element data for the satellite.

Feedback or suggestion? Click here.




ElementValue
Catalog49303
NameONEWEB-0377
Epoch Orbit355
Epoch Day339.91667824
Epoch Year2021
RAAN275.0665
Inclination87.2038
Eccentricity0.0011453
Argument of Perigee99.5543
Mean Anonmoly324.109
Mean Motion14.88427273
Decay Rate-0.00050242
L11 49303U 21090AA 21339.91667824 -.00050242 00000+0 -54617-2 0 9991
L22 49303 87.2038 275.0665 0011453 99.5543 324.1090 14.88427273 3557

Live tracking and technical data element details for ONEWEB-0377 (NORAD 49303). ONEWEB-0377 can be tracked NOW for your location showing map with azimuth and elevation plus other details from your city location.

Track the satellite on the map from your city or location and see movement details for azimuth, elevation, latitude, longitude, range, height, and movement on the map or in text.







IsCatalogInMostPopularTable: catalog: 49303, numindb: 3
Update: records affected: 1



GetName: 49303 ONEWEB-0377

Hit Count: updated at: Mon, 06 Dec 2021 15:07:19 GMT